When you browse on this site, cookies collect data to enhance your experience and personalize the content and advertising you see.
Visit our Privacy Policy to learn more. By continuing to use the site, you agree to this use of cookies and data.
  • In Czech Republic
  • List of Countries
  • For 7 days
  • Water Temperature
  • Satellite Maps
  • Weather Map
  • Weather Widgets
  • user-avatar
    Login

    Hourly Weather Grabin

    Today, 16 December, Sunday

    Time Temperature Precipitation Wind Pressure Humidity
    00:00 -2°C° 0 mm 3 mps 766 mmHg 89%
    01:00 -2°C° 0 mm 3 mps 765 mmHg 88%
    02:00 -3°C° 0 mm 4 mps 765 mmHg 88%
    03:00 -3°C° 0 mm 4 mps 764 mmHg 88%
    04:00 -3°C° 0 mm 4 mps 764 mmHg 87%
    05:00 -3°C° 0 mm 4 mps 763 mmHg 87%
    06:00 -3°C° 0 mm 4 mps 763 mmHg 86%
    07:00 -3°C° 0 mm 4 mps 762 mmHg 85%
    08:00 -3°C° 0 mm 4 mps 762 mmHg 81%
    09:00 -3°C° 0 mm 4 mps 762 mmHg 78%
    10:00 -2°C° 0 mm 5 mps 761 mmHg 75%
    11:00 -2°C° 0 mm 4 mps 761 mmHg 73%
    12:00 -2°C° 0 mm 4 mps 760 mmHg 71%
    13:00 -2°C° 0 mm 4 mps 760 mmHg 69%
    14:00 -2°C° 0 mm 4 mps 759 mmHg 71%
    15:00 -1°C° 0 mm 3 mps 759 mmHg 74%
    16:00 -2°C° 0 mm 3 mps 759 mmHg 76%
    17:00 -2°C° 0 mm 3 mps 759 mmHg 78%
    18:00 -2°C° 0 mm 3 mps 759 mmHg 80%
    19:00 -4°C° 0 mm 4 mps 758 mmHg 82%
    20:00 -4°C° 0 mm 3 mps 758 mmHg 81%
    21:00 -4°C° 0 mm 3 mps 758 mmHg 80%
    22:00 -4°C° 0 mm 3 mps 758 mmHg 80%
    23:00 -4°C° 0 mm 3 mps 758 mmHg 80%

    Tomorrow, 17 December, Monday

    Time Temperature Precipitation Wind Pressure Humidity
    00:00 -2°C° 0 mm 3 mps 759 mmHg 80%
    01:00 -2°C° 0 mm 3 mps 759 mmHg 80%
    02:00 -2°C° 0 mm 3 mps 759 mmHg 81%
    03:00 -2°C° 0 mm 3 mps 759 mmHg 81%
    04:00 -2°C° 0 mm 2 mps 759 mmHg 82%
    05:00 -2°C° 0 mm 2 mps 759 mmHg 84%
    06:00 -2°C° 0 mm 2 mps 759 mmHg 86%
    07:00 -3°C° 0 mm 2 mps 759 mmHg 88%
    08:00 -2°C° 0 mm 2 mps 760 mmHg 88%
    09:00 -2°C° 0 mm 2 mps 760 mmHg 87%
    10:00 -2°C° 0 mm 2 mps 761 mmHg 87%
    11:00 -1°C° 0 mm 2 mps 761 mmHg 85%
    12:00 +1°C° 0 mm 1 mps 761 mmHg 84%
    13:00 +1°C° 0 mm 1 mps 762 mmHg 82%
    14:00 +1°C° 0 mm 1 mps 762 mmHg 85%
    15:00 +1°C° 0 mm 1 mps 762 mmHg 87%
    16:00 0°C° 0 mm 1 mps 763 mmHg 90%
    17:00 0°C° 0 mm 1 mps 763 mmHg 90%
    18:00 0°C° 0 mm 1 mps 764 mmHg 91%
    19:00 0°C° 0 mm 1 mps 764 mmHg 91%
    20:00 0°C° 0 mm 1 mps 765 mmHg 92%
    21:00 0°C° 0 mm 1 mps 765 mmHg 92%
    22:00 -2°C° 0 mm 2 mps 765 mmHg 93%
    23:00 +1°C° 0 mm 1 mps 766 mmHg 93%

    Day after tomorrow, 18 December, Tuesday

    Time Temperature Precipitation Wind Pressure Humidity
    00:00 +1°C° 0 mm 1 mps 766 mmHg 93%
    01:00 +1°C° 0 mm 1 mps 766 mmHg 94%
    02:00 +1°C° 0 mm 1 mps 766 mmHg 94%
    03:00 +1°C° 0 mm 1 mps 766 mmHg 94%
    04:00 +1°C° 0 mm 1 mps 767 mmHg 94%
    05:00 +1°C° 0 mm 1 mps 767 mmHg 94%
    06:00 +1°C° 0 mm 1 mps 767 mmHg 95%
    07:00 -2°C° 0 mm 2 mps 767 mmHg 95%
    08:00 -1°C° 0 mm 2 mps 768 mmHg 94%
    09:00 -1°C° 0 mm 2 mps 768 mmHg 93%
    10:00 0°C° 0 mm 3 mps 768 mmHg 93%
    11:00 +1°C° 0 mm 2 mps 768 mmHg 92%
    12:00 +1°C° 0 mm 2 mps 768 mmHg 91%
    13:00 +2°C° 0 mm 2 mps 768 mmHg 90%
    14:00 0°C° 0 mm 3 mps 768 mmHg 91%
    15:00 0°C° 0 mm 3 mps 768 mmHg 93%
    16:00 0°C° 0 mm 3 mps 768 mmHg 94%
    17:00 0°C° 0 mm 3 mps 768 mmHg 94%
    18:00 0°C° 0 mm 3 mps 768 mmHg 95%
    19:00 0°C° 0 mm 3 mps 768 mmHg 95%
    20:00 0°C° 0 mm 3 mps 768 mmHg 94%
    21:00 0°C° 0 mm 3 mps 768 mmHg 94%
    22:00 0°C° 0 mm 3 mps 768 mmHg 94%
    23:00 -1°C° 0 mm 4 mps 767 mmHg 94%

    19 December, Wednesday

    Time Temperature Precipitation Wind Pressure Humidity
    00:00 -1°C° 0 mm 4 mps 767 mmHg 94%
    01:00 -1°C° 0 mm 4 mps 767 mmHg 93%
    02:00 -1°C° 0 mm 4 mps 767 mmHg 93%
    03:00 -1°C° 0 mm 5 mps 766 mmHg 93%
    04:00 -2°C° 0 mm 5 mps 766 mmHg 93%
    05:00 -2°C° 0 mm 5 mps 766 mmHg 92%
    06:00 -2°C° 0 mm 5 mps 765 mmHg 90%
    07:00 -3°C° 0 mm 6 mps 765 mmHg 89%
    08:00 -3°C° 0 mm 6 mps 765 mmHg 86%
    09:00 -2°C° 0 mm 7 mps 765 mmHg 83%
    10:00 -2°C° 0 mm 7 mps 765 mmHg 81%
    11:00 -2°C° 0 mm 7 mps 764 mmHg 78%
    12:00 -1°C° 0 mm 7 mps 764 mmHg 76%
    13:00 -1°C° 0 mm 7 mps 764 mmHg 73%
    14:00 -1°C° 0 mm 7 mps 763 mmHg 75%
    15:00 -2°C° 0 mm 7 mps 763 mmHg 76%
    16:00 -2°C° 0 mm 7 mps 763 mmHg 78%
    17:00 -2°C° 0 mm 7 mps 763 mmHg 79%
    18:00 -3°C° 0 mm 7 mps 762 mmHg 79%
    19:00 -3°C° 0 mm 7 mps 762 mmHg 80%
    20:00 -3°C° 0 mm 6 mps 762 mmHg 80%
    21:00 -3°C° 0 mm 6 mps 762 mmHg 80%
    22:00 -3°C° 0 mm 6 mps 762 mmHg 80%
    23:00 -3°C° 0 mm 6 mps 762 mmHg 80%

    20 December, Thursday

    Time Temperature Precipitation Wind Pressure Humidity
    00:00 -2°C° 0 mm 5 mps 762 mmHg 81%
    01:00 -2°C° 0 mm 5 mps 762 mmHg 82%
    02:00 -2°C° 0 mm 5 mps 762 mmHg 82%
    03:00 -2°C° 0 mm 5 mps 762 mmHg 82%
    04:00 -2°C° 0 mm 5 mps 761 mmHg 82%
    05:00 -2°C° 0 mm 5 mps 761 mmHg 83%
    06:00 -2°C° 0 mm 5 mps 761 mmHg 83%
    07:00 -2°C° 0 mm 4 mps 761 mmHg 84%
    08:00 -2°C° 0 mm 4 mps 762 mmHg 83%
    09:00 -2°C° 0 mm 4 mps 762 mmHg 82%
    10:00 -2°C° 0 mm 4 mps 762 mmHg 82%
    11:00 -2°C° 0 mm 4 mps 762 mmHg 81%
    12:00 -1°C° 0 mm 4 mps 762 mmHg 80%
    13:00 -1°C° 0 mm 4 mps 761 mmHg 78%
    14:00 0°C° 0 mm 3 mps 761 mmHg 80%
    15:00 0°C° 0 mm 3 mps 762 mmHg 82%
    16:00 -1°C° 0 mm 3 mps 762 mmHg 84%
    17:00 -1°C° 0.1 mm 2 mps 762 mmHg 85%
    18:00 -1°C° 0.1 mm 2 mps 762 mmHg 86%
    19:00 -1°C° 0.1 mm 2 mps 762 mmHg 87%
    20:00 -1°C° 0.3 mm 2 mps 762 mmHg 89%
    21:00 -1°C° 0.3 mm 2 mps 762 mmHg 91%
    22:00 -1°C° 0.3 mm 2 mps 762 mmHg 93%
    23:00 +1°C° 0.2 mm 2 mps 763 mmHg 94%

    21 December, Friday

    Time Temperature Precipitation Wind Pressure Humidity
    00:00 +1°C° 0.2 mm 2 mps 763 mmHg 95%
    01:00 +1°C° 0.2 mm 2 mps 763 mmHg 96%
    02:00 +1°C° 0 mm 2 mps 763 mmHg 96%
    03:00 +1°C° 0 mm 3 mps 763 mmHg 96%
    04:00 +1°C° 0 mm 3 mps 763 mmHg 97%
    05:00 +1°C° 0 mm 3 mps 763 mmHg 96%
    06:00 +1°C° 0 mm 3 mps 763 mmHg 96%
    07:00 +1°C° 0 mm 3 mps 764 mmHg 96%
    08:00 0°C° 0 mm 4 mps 764 mmHg 95%
    09:00 0°C° 0 mm 4 mps 764 mmHg 95%
    10:00 0°C° 0 mm 4 mps 764 mmHg 94%
    11:00 0°C° 0 mm 5 mps 763 mmHg 93%
    12:00 +1°C° 0 mm 5 mps 763 mmHg 91%
    13:00 +1°C° 0 mm 6 mps 762 mmHg 90%
    14:00 +1°C° 0 mm 6 mps 762 mmHg 89%
    15:00 -1°C° 0 mm 7 mps 761 mmHg 88%
    16:00 -1°C° 0 mm 7 mps 761 mmHg 88%
    17:00 -1°C° 0 mm 8 mps 760 mmHg 86%
    18:00 0°C° 0 mm 8 mps 759 mmHg 84%
    19:00 0°C° 0 mm 8 mps 759 mmHg 82%
    20:00 0°C° 0.3 mm 9 mps 758 mmHg 81%
    21:00 0°C° 0.3 mm 9 mps 757 mmHg 81%
    22:00 0°C° 0.3 mm 9 mps 757 mmHg 81%
    23:00 +1°C° 1.3 mm 8 mps 756 mmHg 83%
    Show more